Follow iAlert.com on twitter @ialertcom
Search For Active Alerts in Your Area  
  Hi Guest:  [ Sign-up / Services ] [ Login ]

Current weather by "City, St" or "zip code"  
 

Advertise Here

Current Conditions: Pottstown, Pottstown Limerick Airport, PA

Fair


53.0 F

Last Updated on Nov 22 2017, 10:54 am EST
Humidity: 55%
Wind Speed: NW 12.7 G 23.0 mph
Barometer 29.94 in
Dewpoint: 37.0 F
Visibility: 8.00 mi
Precip: --
Heat Index: NA
Wind Chill: 49 F
Current conditions at:

Pottstown, Pottstown Limerick Airport, PA (KPTW)

Lat: 40.23 Lon: 75.554

Local Radar Image active severe weather and emergency alerts image image weather storm and storm spotter reports image weather observation monitoring service image
Local
Radar
Active
Alerts
Storm Reports Obs
Monitoring

iAlert Weather and Emergency Alert Notification Services:


ialert severe weather and emergency alerts by text message and email ialert daily weather forecast by email and text message service ialert real-time weather-observation monitoring and alert notification service ialert storm report monitoring alert notification

Observation History for Pottstown, Pottstown Limerick Airport, PA


Time Wind
(mph)
Vis
(mi)
Weather Precip (in) Temperature (F) Relative
Humidity
Wind
Chill
(°F)
Heat
Index
(°F)
Pressure
Air Dwpt altimeter
(in)
sea level
(mb)
10:54 am EST NW 12.7 G 23.0 8.00 Fair -- 53.0 37.0 55% 49 NA 29.94 1013.6
9:54 am EST W 4.6 6.00 Fog/Mist -- 49.0 46.0 90% 47 NA 29.94 1013.8
8:54 am EST N 0.0 6.00 Fog/Mist -- 46.0 46.0 100% NA NA 29.94 1013.5
7:54 am EST N 0.0 6.00 Fog/Mist Trace 45.0 45.0 100% NA NA 29.94 1013.8
6:54 am EST N 0.0 7.00 Light Rain 00.02 48.0 46.9 96% NA NA 29.92 1013.2
5:54 am EST N 0.0 8.00 Light Rain Trace 45.0 45.0 100% NA NA 29.91 1012.8
4:54 am EST N 0.0 9.00 Overcast -- 44.0 42.1 93% NA NA 29.91 1012.8
3:54 am EST NE 4.6 10.00 A Few Clouds -- 43.0 41.0 93% 40 NA 29.93 1013.5
2:54 am EST SE 3.5 10.00 A Few Clouds -- 45.0 43.0 93% NA NA 29.96 1014.2
1:54 am EST N 0.0 10.00 Fair -- 44.0 41.0 89% NA NA 29.97 1014.6
12:54 am EST N 0.0 10.00 A Few Clouds -- 42.0 39.0 89% NA NA 29.99 1015.2
11:54 pm EST N 0.0 10.00 Fair -- 41.0 39.0 93% NA NA 30.01 1015.9
10:54 pm EST N 0.0 10.00 Fair -- 48.0 41.0 77% NA NA 30.02 1016.5
9:54 pm EST S 3.5 10.00 Fair -- 43.0 37.9 82% NA NA 30.04 1017.1
8:54 pm EST S 3.5 10.00 Fair -- 47.0 37.9 71% NA NA 30.04 1017.1
7:54 pm EST S 3.5 10.00 Fair -- 47.0 36.0 66% NA NA 30.04 1017.1
6:54 pm EST N 0.0 10.00 Fair -- 43.0 33.1 68% NA NA 30.04 1017.3
5:54 pm EST N 0.0 10.00 Fair -- 43.0 32.0 65% NA NA 30.04 1017.0
4:54 pm EST N 0.0 9.00 Fair -- 49.0 30.9 50% NA NA 30.02 1016.5
3:54 pm EST SW 6.9 9.00 Fair -- 53.0 30.9 43% 51 NA 30.03 1016.8
2:54 pm EST SW 9.2 9.00 Fair -- 54.0 28.9 38% 51 NA 30.04 1017.1
1:54 pm EST S 8.1 9.00 Fair -- 55.0 30.0 38% 53 NA 30.04 1017.1
12:54 pm EST S 9.2 9.00 Fair -- 53.0 30.0 41% 50 NA 30.06 1017.9
11:54 am EST SW 8.1 9.00 Fair -- 54.0 32.0 43% 52 NA 30.08 1018.7

Regional Weather Observation


Pottstown, Pottstown Limerick Airport, PA (KPTW)

Fair
53.0 F

Allentown Queen City Municipal Airport, PA (KXLL)

Mostly Cloudy
54.0 F

Quakertown Airport, PA (KUKT)

Fair
52.0 F

Allentown, Lehigh Valley International Airport, PA (KABE)

Light Rain
52.0 F

Doylestown, Doylestown Airport, PA (KDYL)

Mostly Cloudy
52.0 F

Philadelphia, Northeast Philadelphia Airport, PA (KPNE)

Overcast
56.0 F

Advertise Here